Location: Austin
(30.3000°N, 97.7500°W)
Time: 23:59:53
(UTC-06:00)

NOSS 3-4 (C) - Pass Details

Date: 04 November 2025
Orbit: 775 x 1436 km, 63.4° (Epoch: 11 November)

Event Time Altitude Azimuth Distance (km) Brightness Sun altitude
Rises 19:35:28 0° 337° (NNW) 3,859 6.9 -25.1°
Reaches altitude 10° 19:38:04 10° 343° (NNW) 2,994 6.2 -25.6°
Enters shadow 19:44:59 51° 55° (NE) 1,532 4.1 -27.1°
